Presure
199 170 200 207 215 212 209 202 197 192 190 193 188 198 206 206 207 211 196 196 195 184 181 169 168 166 156 134 203 214 222 227 167 155 161 151 173 143 149 139 150 156 123 137
209 211 218 210 196 196 190 188 183 180 181 178 207 210 186 197 201 201 210 200 196 183 179 173 173 162 162 132 133 135 214 167 192 185 183 183 144 167 161 165 173 176 160 150
209 184 173 169 172 169 164 166 181 184 177 175 183 194 204 195 201 196 206 197 191 195 182 178 179 151 167 164 131 128 139 185 170 183 180 178 180 153 158 171 166 166 162 159
168 169 170 174 181 181 177 182 177 178 184 185 184 183 186 195 201 195 192 208 186 192 203 185 174 173 170 160 157 150 136 141 127 179 176 176 173 155 151 156 162 176 164 164
165 160 166 176 183 184 183 182 176 182 181 189 185 185 179 178 193 211 185 187 192 212 187 183 179 169 170 166 161 152 146 147 167 128 166 175 172 169 162 164 163 157 157 175
167 173 185 187 189 193 191 191 188 183 188 188 178 184 179 179 179 185 205 217 189 188 215 194 188 173 177 169 163 159 152 138 132 139 150 175 170 174 172 173 171 174 168 169
190 194 194 190 192 192 189 191 199 198 195 192 185 183 171 169 182 181 182 201 204 206 186 213 206 184 172 170 169 164 156 150 135 159 146 157 164 178 179 174 179 190 189 188
177 177 177 177 177 175 176 176 177 176 181 184 194 179 200 177 178 181 177 178 194 211 198 185 209 199 184 171 169 170 163 156 147 148 149 143 138 152 156 155 159 169 203 212
185 186 186 186 186 184 185 185 183 182 179 178 184 186 192 197 175 178 180 173 170 177 198 193 181 205 191 188 175 167 169 161 153 156 144 143 158 142 143 148 152 149 150 187
189 193 190 185 182 183 189 192 196 196 194 193 195 195 187 181 187 191 177 176 173 172 167 191 198 181 185 202 191 178 176 171 167 159 153 152 144 158 135 144 143 151 154 161
184 179 177 169 175 173 176 179 179 186 187 185 189 196 209 219 176 177 188 199 181 171 177 176 188 198 185 179 188 198 190 179 179 175 162 157 153 144 150 152 145 145 151 155
184 181 181 176 177 169 168 176 189 186 195 188 196 187 192 196 204 216 176 183 193 181 177 169 169 176 191 198 185 177 181 193 193 186 184 167 168 163 150 153 144 148 147 151
173 181 177 177 180 171 170 178 177 174 177 184 184 187 191 189 192 201 196 202 189 181 189 194 166 161 166 179 187 192 186 178 183 192 188 189 184 183 163 150 149 150 149 156
173 173 168 180 181 183 181 171 178 178 171 174 174 181 187 189 198 204 204 218 199 199 171 184 192 185 178 168 171 178 182 192 199 183 186 196 179 187 186 166 145 151 143 152
182 177 182 167 166 168 176 182 182 176 176 176 178 174 180 178 190 199 198 204 213 257 186 200 175 184 188 190 175 167 162 176 180 185 205 196 191 182 189 194 172 159 141 136
187 182 184 185 177 176 172 176 185 185 180 178 178 183 184 182 179 197 190 107 194 192 232 207 198 209 179 186 185 187 171 171 179 163 172 183 206 212 190 187 201 174 129 161
190 181 183 184 185 185 154 123 178 185 187 185 178 180 186 190 195 101 199 199 196 191 212 225 222 192 207 214 191 181 182 178 174 170 172 183 187 194 209 215 195 147 181 177
210 215 202 202 208 210 188 186 188 194 189 188 189 184 184 189 191 191 201 164 191 188 191 208 237 214 203 209 219 225 225 183 183 184 184 186 189 196 208 198 217 156 192 153
206 197 190 185 186 184 189 177 184 179 197 198 196 193 190 191 190 187 192 196 188 187 190 198 208 236 206 210 215 220 234 227 222 208 181 176 211 202 201 209 223 209 217 200
187 186 203 197 196 192 170 182 186 190 199 191 202 207 201 198 190 187 188 191 190 193 193 109 204 229 228 202 209 215 215 225 221 216 212 205 219 224 217 216 220 212 229 223
196 197 197 202 204 204 203 200 199 197 189 159 194 195 198 192 194 194 197 194 196 189 189 207 196 201 235 224 204 222 211 219 220 216 217 211 221 222 219 233 231 219 234 223
214 214 211 216 216 213 208 207 193 203 202 207 202 202 196 194 199 197 196 200 197 196 199 192 191 213 209 235 209 209 214 204 217 217 214 223 221 218 218 226 223 244 235 258
274 272 272 265 259 258 251 231 246 231 212 213 210 224 204 199 196 193 200 197 200 196 189 198 212 202 232 227 230 204 214 204 217 215 213 222 223 218 217 218 226 231 237 149
314 311 312 303 291 270 264 257 251 252 255 241 238 236 215 215 219 218 213 212 208 205 208 205 216 224 245 213 240 220 225 222 210 216 213 218 223 218 224 224 217 215 212 210
276 293 295 287 291 297 301 291 273 262 256 258 253 250 250 241 235 237 240 234 204 232 231 227 225 258 236 155 168 229 202 227 184 214 214 213 224 209 218 213 215 213 214 227
273 274 272 273 275 276 275 283 288 292 281 285 282 278 258 258 259 259 255 254 253 230 238 255 266 215 185 195 221 182 184 161 170 202 221 197 197 218 217 213 212 213 241 229
Wind_Speed
27 27 23 20 13 11 9 9 11 12 14 16 17 19 17 23 20 17 20 19 24 24 21 24 20 19 17 7 9 14 20 30 33 27 33 17 36 18 17 15 22 30 9 11
23 17 14 13 14 12 11 12 14 16 16 17 10 12 19 17 19 17 18 23 23 26 25 25 22 21 18 10 6 4 27 23 36 34 39 37 23 29 24 26 30 32 32 23
15 19 20 20 19 19 20 21 17 17 19 18 15 12 12 16 16 20 19 23 26 27 30 28 26 19 22 20 8 6 6 28 26 33 26 25 28 24 22 18 26 28 30 30
21 22 24 23 21 22 21 17 19 20 18 18 16 15 14 13 15 18 19 20 24 26 28 30 29 26 25 22 20 15 8 8 1 35 22 25 27 30 26 24 23 24 28 32
27 25 27 27 25 21 22 21 22 20 22 16 20 17 19 20 16 14 21 22 21 22 31 33 32 29 29 25 24 21 15 13 17 1 15 19 23 26 26 28 30 29 25 40
33 32 23 25 26 22 23 23 23 24 23 17 24 24 22 22 21 20 16 15 26 25 23 33 35 33 31 30 29 27 23 13 8 11 10 23 20 22 24 27 29 33 36 36
29 27 22 25 27 23 24 24 23 26 24 19 26 27 27 25 25 21 22 17 20 26 27 23 31 37 35 34 32 32 28 23 13 21 14 16 16 28 27 23 28 33 36 36
35 34 30 33 31 31 34 31 31 31 28 25 25 31 23 29 30 27 27 25 21 19 28 28 27 35 40 38 36 35 34 31 25 22 19 13 6 14 13 11 11 13 21 23
32 31 29 34 31 32 32 33 32 35 34 33 31 30 24 24 32 35 30 29 29 26 25 31 32 28 39 43 42 39 37 37 33 32 21 17 25 13 11 11 10 8 8 12
31 30 31 34 31 32 29 31 32 33 34 35 36 36 29 30 32 34 36 36 32 31 30 25 30 34 34 37 43 46 45 42 42 39 34 30 20 28 9 12 10 13 13 15
33 34 34 37 40 35 35 34 35 32 34 36 38 32 33 34 36 39 38 36 36 38 37 32 33 33 40 40 40 40 48 48 46 47 43 39 34 22 24 23 16 13 15 13
37 33 37 38 40 42 37 39 33 34 36 36 37 42 32 32 32 33 44 37 33 42 48 33 38 38 36 40 47 44 44 44 49 49 49 48 46 41 28 27 18 20 17 15
41 38 40 41 43 46 45 37 37 39 38 37 37 44 41 33 28 29 35 30 40 44 48 46 42 43 42 43 44 45 48 48 47 48 52 50 51 49 43 29 30 27 22 23
51 41 41 43 47 46 39 42 45 41 41 46 43 49 41 41 26 34 28 27 38 43 53 51 48 49 51 48 47 48 47 46 49 51 50 52 50 51 51 47 32 28 20 24
50 51 47 47 50 47 42 46 45 48 46 49 53 49 54 45 36 31 25 24 25 26 50 49 55 52 52 52 54 49 43 49 48 48 48 52 56 52 55 54 50 37 24 20
55 54 54 50 54 55 50 48 51 48 52 54 53 53 52 55 43 34 31 16 26 29 36 55 49 48 56 56 56 57 55 54 53 43 48 51 52 59 58 55 54 51 23 36
56 59 58 56 61 58 37 21 59 60 56 52 54 53 58 56 51 17 33 30 29 36 33 43 47 51 49 51 56 60 58 60 57 54 54 55 56 55 56 61 56 31 51 47
65 60 56 56 62 57 60 66 67 63 62 59 54 51 57 62 56 47 39 23 39 40 38 39 40 48 51 49 48 50 53 62 60 59 59 58 57 55 55 55 60 39 50 33
67 65 57 53 58 52 56 61 68 65 65 63 60 58 58 59 53 52 47 43 45 47 42 39 35 40 50 49 47 47 46 50 52 56 62 58 57 57 55 55 53 55 58 51
71 63 72 66 63 63 63 72 76 72 59 66 67 63 60 61 53 54 54 54 49 47 46 8 36 40 43 51 49 48 48 46 49 51 53 55 53 53 55 51 51 48 50 50
80 80 74 76 75 73 73 78 83 80 60 46 65 54 62 57 59 61 57 59 56 51 48 44 36 42 44 47 51 46 48 46 48 51 52 52 51 51 50 46 46 49 47 49
91 90 89 88 85 82 82 81 80 80 74 78 74 71 62 62 63 64 61 60 53 52 55 48 38 45 44 43 48 47 47 49 49 51 50 51 49 47 46 43 42 42 44 45
80 85 86 87 88 84 85 91 88 91 83 83 82 84 68 69 63 62 67 63 59 57 54 57 51 41 47 44 44 49 49 48 52 52 50 48 47 47 42 41 39 37 41 44
58 63 65 65 73 84 87 85 89 90 84 88 89 86 82 83 88 82 78 75 70 62 59 58 56 45 48 39 45 47 48 50 49 55 53 49 46 47 41 40 39 41 43 47
48 45 48 52 53 56 59 72 81 84 87 86 88 89 88 90 90 91 87 84 65 77 71 64 56 50 47 33 32 44 43 45 51 55 55 52 46 50 46 43 41 45 45 46
53 48 44 44 49 53 55 59 65 69 70 78 81 83 85 86 85 87 86 86 76 65 68 63 57 29 19 29 50 54 47 50 49 56 56 53 54 49 47 47 45 45 42 46
Wind_Direction
269 278 269 263 252 249 244 242 232 245 249 248 251 250 245 250 243 221 234 230 223 240 224 221 224 222 226 221 216 178 177 184 209 224 226 228 220 235 233 224 229 229 192 201
258 258 242 247 258 252 249 251 248 250 246 254 236 239 241 240 242 231 211 218 220 220 229 233 212 233 223 213 223 199 183 195 185 199 217 206 234 236 245 242 230 217 225 237
247 260 273 276 273 270 272 272 259 254 254 249 243 241 243 237 230 229 228 219 225 219 221 221 225 230 223 217 218 226 202 195 212 202 209 207 217 233 236 230 231 232 229 229
272 275 276 274 266 263 260 247 254 258 257 253 247 232 237 233 231 230 226 228 229 229 223 223 220 225 216 222 230 227 228 251 321 204 223 213 209 230 238 229 233 239 237 231
277 276 277 273 267 262 260 253 251 251 251 250 253 239 232 238 227 226 229 230 231 233 229 221 222 222 219 222 223 231 234 235 218 318 224 220 222 223 230 232 237 244 240 233
277 276 272 271 270 262 260 259 251 246 250 237 249 247 240 240 236 233 224 234 230 231 226 227 222 226 220 222 222 226 229 238 232 251 247 221 220 225 226 232 240 246 246 249
271 275 270 265 265 267 263 260 262 261 260 247 238 241 242 247 247 239 239 234 229 223 231 225 225 226 225 226 227 225 229 235 250 229 261 242 231 236 240 239 246 247 247 251
271 269 271 267 268 266 265 265 263 262 255 248 251 247 240 239 245 237 232 238 238 222 224 231 222 222 228 228 229 228 229 237 241 243 243 245 255 254 248 241 237 248 240 245
268 271 267 267 266 262 266 263 264 264 262 258 250 243 237 232 243 248 238 236 238 233 225 226 231 226 231 230 231 233 231 230 238 236 243 244 238 243 247 262 259 261 275 245
266 264 261 264 268 266 265 269 268 267 269 265 263 256 241 233 230 240 242 239 240 240 240 228 229 232 234 231 231 234 237 234 231 237 242 242 239 236 219 242 246 259 266 275
268 268 266 269 268 267 273 268 270 270 268 269 269 268 267 262 233 240 244 241 237 245 239 224 230 225 229 236 239 233 236 239 237 233 237 240 244 238 240 237 241 251 255 262
273 269 266 262 265 272 269 275 274 273 269 269 270 270 264 257 252 257 248 247 243 240 247 229 237 235 229 231 235 236 240 239 236 237 233 238 238 238 240 242 240 247 248 246
274 266 266 267 263 264 270 275 273 269 272 267 267 269 265 263 260 267 255 248 244 239 245 243 235 246 240 235 234 240 235 239 241 240 240 240 238 236 239 238 237 237 244 243
270 268 270 267 265 266 268 268 270 265 265 269 269 270 273 270 262 257 256 256 253 249 251 246 242 232 235 239 240 239 240 240 242 241 244 240 241 241 239 236 237 236 228 243
268 271 268 264 268 267 266 266 262 267 266 265 265 266 273 267 270 265 262 262 271 270 252 252 248 242 238 234 238 243 252 244 245 245 245 246 241 244 243 243 236 236 232 229
267 266 268 266 263 266 268 270 271 262 260 262 265 270 265 268 267 274 265 235 266 267 262 250 246 246 244 240 234 236 242 247 244 250 249 249 248 246 246 245 243 239 253 238
258 265 267 265 266 267 271 275 263 265 262 261 262 266 276 274 278 252 278 274 255 249 268 266 252 249 248 249 245 243 240 242 245 248 250 249 250 251 250 247 246 243 241 245
267 260 258 262 265 265 264 267 268 266 265 263 261 263 267 270 275 275 272 257 262 257 259 265 263 250 250 248 250 246 246 243 243 243 245 246 247 248 250 252 249 252 248 240
266 269 267 267 267 268 265 263 264 265 264 264 265 261 261 265 268 273 277 270 259 261 261 268 273 261 253 252 250 249 244 245 246 245 245 248 249 248 249 249 250 250 248 250
275 274 268 269 264 261 261 264 263 262 268 269 265 264 264 266 265 263 265 264 261 265 263 196 274 269 252 252 251 248 247 244 245 245 246 245 251 251 249 250 249 247 247 243
272 272 272 269 267 262 257 259 262 266 261 264 264 261 261 258 262 260 258 260 261 261 262 266 259 270 264 251 253 252 251 247 244 245 246 246 250 250 250 252 249 247 246 241
265 266 267 267 267 265 263 261 260 263 262 260 260 260 257 257 257 258 258 257 256 261 265 259 252 272 272 258 249 254 251 252 248 246 249 248 247 245 249 251 246 247 241 233
262 260 260 260 261 259 256 259 256 258 259 258 260 260 259 259 255 254 257 256 255 252 255 264 267 262 264 261 251 249 249 250 253 251 249 250 249 246 244 245 247 246 239 244
262 262 261 258 258 257 255 252 254 255 254 255 256 254 257 259 258 257 256 257 257 256 255 256 262 264 250 256 252 245 246 247 252 253 254 248 249 248 246 243 236 237 234 232
264 260 254 255 256 259 261 257 256 255 256 254 251 252 252 252 256 258 259 258 255 259 261 258 256 252 246 254 243 251 242 241 250 251 249 247 246 247 245 241 237 235 238 238
259 262 263 261 259 258 255 254 254 256 255 257 256 255 254 255 255 255 255 256 255 254 256 251 240 210 209 260 250 255 255 240 248 248 245 248 249 247 247 246 243 237 249 241